Location: Iesi
(43.5167°N, 13.2333°E)
Time: 00:24:34
(UTC+00:00)

Cosmos 2322 Rocket - Pass Details

Date: 08 August 2020
Orbit: 831 x 852 km, 71.0° (Epoch: 19 September)

Event Time Altitude Azimuth Distance (km) Brightness Sun altitude
Rises 20:14:01 0° 344° (NNW) 3,417 6.4 -18.0°
Reaches altitude 10° 20:17:10 10° 1° (N) 2,481 5.2 -18.4°
Maximum altitude 20:21:18 20° 48° (NE) 1,866 4.0 -18.9°
Enters shadow 20:23:54 15° 81° (E) 2,131 4.0 -19.2°
